CDT,Max TemperatureF,Mean TemperatureF,Min TemperatureF,Max Dew PointF,MeanDew PointF,Min DewpointF,Max Humidity, Mean Humidity, Min Humidity, Max Sea Level PressureIn, Mean Sea Level PressureIn, Min Sea Level PressureIn, Max VisibilityMiles, Mean VisibilityMiles, Min VisibilityMiles, Max Wind SpeedMPH, Mean Wind SpeedMPH, Max Gust SpeedMPH,PrecipitationIn, CloudCover, Events, WindDirDegrees
2013-10-1,96,73,50,38,33,27,55,29,10,29.92,29.87,29.84,10,10,10,14,6,23,0.00,0,,266
2013-10-2,96,73,50,45,35,32,51,28,12,29.96,29.89,29.83,10,10,7,16,4,22,0.00,0,,301
2013-10-3,96,74,54,57,45,39,72,40,18,29.91,29.84,29.75,10,10,7,12,2,,0.00,0,,276
2013-10-4,95,76,57,56,44,35,74,37,14,29.92,29.85,29.80,10,10,10,21,5,26,0.00,0,,266
2013-10-5,72,64,52,60,34,27,80,35,20,30.24,30.11,29.91,10,10,2,24,9,32,0.00,0,,354
2013-10-6,77,58,38,32,27,23,62,34,15,30.30,30.22,30.16,10,10,10,8,3,,0.00,0,,247
2013-10-7,84,62,41,28,25,20,50,28,12,30.26,30.17,30.07,10,10,10,12,5,17,0.00,0,,107
2013-10-8,90,64,38,35,28,21,57,29,12,30.09,29.99,29.86,10,10,7,17,6,17,0.00,0,,94
2013-10-9,91,72,52,50,38,33,52,33,16,29.97,29.91,29.85,10,10,7,20,7,24,0.00,0,,77
2013-10-10,95,74,53,51,45,32,76,41,12,29.92,29.84,29.72,10,10,10,20,9,31,0.00,0,,132
2013-10-11,87,72,56,51,37,32,56,30,17,30.00,29.92,29.84,10,10,7,18,6,24,0.00,0,,277
2013-10-12,84,69,54,56,42,30,61,38,21,30.12,30.04,29.97,10,10,10,12,6,,0.00,1,,4
2013-10-13,76,71,66,63,57,49,85,66,50,30.15,30.08,30.03,10,10,7,17,7,17,0.04,4,Rain,46
2013-10-14,86,74,63,64,55,45,90,59,25,30.09,30.00,29.90,10,10,10,18,7,20,0.00,1,,246
2013-10-15,74,62,50,60,51,47,91,74,38,30.16,30.05,29.95,10,10,4,20,8,23,0.17,7,Rain,311
2013-10-16,61,54,48,48,46,43,92,75,58,30.21,30.15,30.07,10,10,7,9,5,,0.00,7,,72
2013-10-17,77,62,48,57,52,46,94,75,41,30.13,30.03,29.91,10,10,10,14,5,9,0.00,2,,65
2013-10-18,84,66,48,55,45,25,97,65,12,30.27,29.97,29.87,10,8,0,22,6,31,0.00,2,Fog,347
2013-10-19,68,50,33,40,35,30,87,58,33,30.31,30.19,30.03,10,10,10,8,5,,0.00,0,,67
2013-10-20,84,60,35,43,33,24,88,48,13,30.02,29.93,29.81,10,10,10,20,5,26,0.00,0,,254
2013-10-21,71,56,42,39,35,25,61,44,31,30.20,30.07,29.89,10,10,4,20,8,24,0.00,0,,355
2013-10-22,74,56,39,43,36,31,79,54,24,30.28,30.21,30.13,10,10,7,8,2,,0.00,0,,78
2013-10-23,80,57,34,37,33,28,77,45,17,30.21,30.13,30.05,10,10,10,14,3,17,0.00,0,,67
2013-10-24,83,61,40,46,37,32,75,45,17,30.20,30.13,30.08,10,10,10,16,6,17,0.00,0,,51
2013-10-25,77,64,51,52,46,43,76,58,31,30.30,30.19,30.11,10,10,10,22,11,26,0.00,1,Thunderstorm,84
2013-10-26,77,62,46,52,46,38,93,62,26,30.20,30.15,30.11,10,10,10,13,6,17,0.00,0,,316
2013-10-27,76,58,41,46,39,34,76,49,26,30.23,30.12,29.95,10,10,7,12,6,,0.00,0,,30
2013-10-28,86,65,44,55,46,38,82,58,22,29.99,29.93,29.85,10,10,3,8,3,,0.00,0,,122
2013-10-29,85,67,50,63,46,32,77,49,16,30.04,29.95,29.90,10,10,10,15,4,,0.00,0,,98
2013-10-30,77,66,56,62,48,40,82,55,33,29.98,29.91,29.81,10,10,5,21,5,25,0.02,3,Rain,166
2013-10-31,74,62,49,56,33,21,86,39,15,30.07,29.96,29.88,10,10,10,24,11,30,0.00,0,,256